Forside
METAR-TAF:

METAR-TAF

Lufthavne :

Eveleth-Virginia Municipal Airport

Eveleth, Minnesota, USA

Breddekreds: 47-24N, længdekreds: 092-30W, højde: 421 m

Aktuelle vejr

Denne rapport blev lavet for 28 minutter siden, kl. 12:15 UTC
Vind 4 kt fra nordøst
Temperatur 14°C
Fugtighed 100%
Tryk 1018 hPa
Sigt: 16.1 km
Spredte skyer i en højde af 100 ft

METAR: KEVM 121215Z AUTO 04004KT 10SM SCT001 14/14 A3005 RMK AO2 T01410141 PWINO

Tid: 07:43 (12:43 UTC)


TAF: fraværende

Vejrobservationer og prognoser fra mere end 4000 lufthavne (METAR og TAF).

De gule og røde prikker repræsenterer de meteorologiske stationer.

Flyt musen over at se navnet på stationen.

Så klik over at se vejr observationer og prognoser.

At skifte det kort: Klik på de grønne knapper med et sort kors for at zoome ind; på den grønne knap med en bindestreg for at zoome ud; eller på de grønne pile for tilstødende kort.


METAR-TAF: